パンスターズ彗星

483P/PanSTARRS (2022)

English version
Home page
Updated on April 9, 2024

---------------------------------------------------------------------

・ プロフィール

符号 483P/2020 Y6
検出日 2020年12月24日
検出光度 25.2等
検出者 H. H. Hsieh and M. Micheli (Gemini North Observatory)

・ 軌道要素

P/2020 Y6-A (PANSTARRS)
                    Epoch = 2022 Mar.  2.0 TT
     T = 2022 Feb. 20.66426 TT        Peri. =  46.98806
     e = 0.2277366                    Node  = 199.81128 2000.0
     q = 2.4496763 AU                 Incl. =  14.32870
       a =  3.1720735 AU   n = 0.17445733   P =   5.65 years

P/2020 Y6-B (PANSTARRS)
                    Epoch = 2022 Mar.  2.0 TT
     T = 2022 Feb. 20.47538 TT        Peri. =  46.98588
     e = 0.2276851                    Node  = 199.81101 2000.0
     q = 2.4497382 AU                 Incl. =  14.32988
       a =  3.1719421 AU   n = 0.17446816   P =   5.65 years

・ 光度変化

        A核
        m1 = 16.5 + 5 logΔ + 10.0 log r

        B核
        m1 = 17.0 + 5 logΔ + 10.0 log r

---------------------------------------------------------------------

軌道要素は、CBET 5367に掲載されたものです。
光度グラフはComet for Windowsで作成したものです。

---------------------------------------------------------------------

Copyright(C) Seiichi Yoshida (comet@aerith.net). All rights reserved.